Total_Precipitation_Accumulation
0.02 0.03 0.05 0.09 0.08 0.07 0.08 0.14 0.25 0.19 0.16 0.19 0.20 0.20 0.24 0.25 0.21 0.17 0.16 0.14 0.15 0.18 0.21 0.25 0.25 0.22 0.19 0.17 0.17 0.23 0.28 0.35 0.44 0.39 0.33 0.30 0.27 0.21 0.19 0.24 0.29 0.42 0.51 0.56
0.01 0.03 0.05 0.08 0.10 0.07 0.05 0.05 0.09 0.12 0.17 0.18 0.18 0.19 0.20 0.19 0.17 0.16 0.16 0.13 0.12 0.14 0.17 0.19 0.16 0.11 0.08 0.08 0.11 0.18 0.24 0.29 0.36 0.35 0.28 0.23 0.19 0.14 0.14 0.20 0.27 0.35 0.39 0.44
0.01 0.03 0.04 0.10 0.10 0.06 0.03 0.03 0.04 0.13 0.21 0.19 0.20 0.19 0.18 0.16 0.14 0.12 0.10 0.08 0.07 0.06 0.06 0.05 0.05 0.04 0.05 0.06 0.07 0.15 0.24 0.32 0.37 0.42 0.41 0.31 0.18 0.15 0.18 0.24 0.32 0.37 0.35 0.36
0.00 0.03 0.14 0.12 0.05 0.03 0.03 0.02 0.03 0.06 0.09 0.10 0.09 0.07 0.06 0.06 0.05 0.03 0.03 0.03 0.03 0.02 0.02 0.02 0.02 0.04 0.07 0.06 0.08 0.13 0.23 0.31 0.34 0.38 0.40 0.36 0.30 0.28 0.32 0.38 0.44 0.45 0.40 0.38
0.01 0.03 0.10 0.06 0.04 0.05 0.06 0.04 0.03 0.03 0.04 0.04 0.04 0.04 0.06 0.03 0.02 0.01 0.01 0.01 0.01 0.02 0.01 0.02 0.02 0.06 0.11 0.12 0.15 0.20 0.30 0.39 0.40 0.42 0.42 0.37 0.34 0.38 0.42 0.48 0.49 0.49 0.44 0.42
0.02 0.05 0.10 0.07 0.07 0.08 0.06 0.11 0.08 0.05 0.04 0.03 0.02 0.08 0.10 0.04 0.01 0.01 0.01 0.01 0.02 0.02 0.03 0.04 0.07 0.11 0.16 0.22 0.27 0.35 0.44 0.50 0.49 0.53 0.56 0.51 0.52 0.53 0.53 0.56 0.52 0.47 0.45 0.49
0.04 0.07 0.09 0.07 0.06 0.05 0.09 0.16 0.04 0.02 0.01 0.01 0.02 0.05 0.05 0.02 0.01 0.01 0.01 0.02 0.03 0.04 0.04 0.07 0.10 0.14 0.24 0.29 0.33 0.37 0.40 0.48 0.55 0.61 0.68 0.72 0.77 0.73 0.69 0.65 0.62 0.57 0.53 0.54
0.06 0.12 0.13 0.05 0.02 0.03 0.05 0.02 0.01 0.01 0.01 0.02 0.02 0.01 0.01 0.01 0.01 0.01 0.02 0.03 0.04 0.06 0.06 0.08 0.11 0.18 0.25 0.29 0.32 0.36 0.41 0.50 0.57 0.63 0.63 0.73 0.97 0.97 0.98 0.93 0.81 0.73 0.69 0.62
0.03 0.05 0.02 0.01 0.01 0.01 0.01 0.01 0.02 0.02 0.01 0.02 0.02 0.02 0.02 0.02 0.02 0.02 0.02 0.03 0.05 0.09 0.11 0.14 0.18 0.29 0.41 0.38 0.39 0.44 0.50 0.57 0.61 0.62 0.70 0.84 0.98 1.02 1.06 1.02 0.90 0.82 0.80 0.77
0.03 0.01 0.01 0.01 0.01 0.01 0.01 0.01 0.01 0.01 0.01 0.02 0.03 0.03 0.03 0.03 0.03 0.04 0.04 0.06 0.09 0.14 0.21 0.29 0.34 0.41 0.51 0.48 0.49 0.54 0.57 0.60 0.63 0.68 0.72 0.80 0.96 0.98 0.98 0.95 0.93 0.89 0.88 0.84
0.03 0.02 0.01 0.02 0.02 0.01 0.00 0.01 0.01 0.01 0.02 0.02 0.03 0.04 0.04 0.04 0.05 0.05 0.06 0.07 0.13 0.22 0.31 0.39 0.47 0.53 0.57 0.61 0.67 0.71 0.66 0.64 0.68 0.73 0.78 0.85 0.92 0.97 0.93 0.88 0.79 0.81 0.83 0.82
0.04 0.04 0.05 0.05 0.03 0.01 0.01 0.01 0.01 0.02 0.02 0.03 0.04 0.05 0.04 0.05 0.05 0.05 0.07 0.08 0.14 0.21 0.31 0.40 0.49 0.56 0.61 0.71 0.84 0.92 0.91 0.81 0.81 0.84 0.88 0.94 0.94 0.85 0.71 0.63 0.50 0.48 0.53 0.57
0.05 0.04 0.04 0.03 0.02 0.01 0.02 0.01 0.02 0.02 0.03 0.03 0.04 0.04 0.05 0.05 0.05 0.06 0.07 0.11 0.17 0.24 0.32 0.38 0.44 0.54 0.65 0.78 0.87 0.92 0.95 0.94 0.90 0.92 0.96 0.96 0.98 0.94 0.84 0.69 0.55 0.46 0.42 0.45
0.03 0.02 0.02 0.01 0.01 0.01 0.01 0.01 0.02 0.03 0.04 0.04 0.05 0.06 0.06 0.07 0.07 0.09 0.11 0.14 0.18 0.25 0.33 0.40 0.47 0.53 0.64 0.76 0.86 0.89 0.89 0.88 0.88 0.93 0.95 0.92 0.91 0.92 0.97 0.91 0.80 0.65 0.48 0.45
0.02 0.02 0.02 0.01 0.01 0.02 0.03 0.04 0.04 0.05 0.05 0.05 0.05 0.05 0.06 0.08 0.09 0.10 0.12 0.16 0.21 0.26 0.32 0.42 0.54 0.60 0.68 0.77 0.82 0.86 0.89 0.89 0.89 0.87 0.87 0.89 0.87 0.85 0.89 0.94 0.90 0.79 0.64 0.55
0.03 0.03 0.03 0.04 0.04 0.05 0.06 0.06 0.07 0.07 0.07 0.07 0.07 0.07 0.08 0.09 0.10 0.11 0.13 0.19 0.28 0.35 0.43 0.53 0.57 0.62 0.77 0.86 0.89 0.90 0.92 0.92 0.95 0.92 0.82 0.82 0.85 0.88 0.88 0.92 0.91 0.81 0.68 0.58
0.08 0.08 0.08 0.08 0.08 0.08 0.08 0.09 0.11 0.11 0.10 0.10 0.09 0.09 0.10 0.12 0.14 0.15 0.17 0.22 0.29 0.35 0.46 0.59 0.59 0.62 0.77 0.91 0.99 1.00 0.93 0.87 0.88 0.90 0.83 0.73 0.75 0.81 0.81 0.82 0.77 0.68 0.58 0.47
0.11 0.13 0.14 0.14 0.14 0.13 0.13 0.14 0.16 0.16 0.17 0.15 0.14 0.14 0.16 0.21 0.23 0.24 0.26 0.29 0.34 0.35 0.38 0.46 0.56 0.64 0.73 0.85 0.93 0.98 0.97 0.93 0.87 0.85 0.82 0.73 0.69 0.72 0.75 0.72 0.62 0.55 0.49 0.41
0.11 0.13 0.15 0.17 0.19 0.20 0.22 0.25 0.26 0.26 0.25 0.24 0.25 0.26 0.27 0.28 0.31 0.34 0.35 0.41 0.51 0.57 0.51 0.50 0.58 0.60 0.68 0.80 0.91 0.91 0.94 0.98 0.91 0.77 0.74 0.73 0.66 0.67 0.59 0.54 0.49 0.46 0.42 0.38
0.16 0.19 0.23 0.26 0.30 0.34 0.36 0.37 0.37 0.38 0.36 0.36 0.36 0.36 0.36 0.36 0.39 0.43 0.47 0.51 0.60 0.70 0.68 0.63 0.58 0.54 0.62 0.78 0.90 0.85 0.82 0.87 0.84 0.72 0.70 0.73 0.65 0.57 0.46 0.42 0.39 0.38 0.38 0.35
0.22 0.27 0.31 0.33 0.35 0.38 0.40 0.43 0.44 0.42 0.40 0.39 0.41 0.42 0.42 0.40 0.41 0.50 0.65 0.68 0.61 0.67 0.67 0.65 0.58 0.56 0.59 0.76 0.82 0.82 0.77 0.74 0.75 0.69 0.63 0.62 0.58 0.50 0.40 0.40 0.37 0.33 0.31 0.28
0.22 0.25 0.28 0.30 0.30 0.29 0.29 0.31 0.32 0.33 0.32 0.32 0.34 0.38 0.44 0.45 0.44 0.50 0.58 0.68 0.71 0.73 0.66 0.63 0.60 0.58 0.56 0.66 0.72 0.79 0.80 0.73 0.69 0.62 0.57 0.51 0.48 0.44 0.36 0.34 0.29 0.22 0.22 0.21
0.14 0.15 0.16 0.17 0.18 0.17 0.15 0.16 0.21 0.26 0.28 0.29 0.32 0.41 0.54 0.56 0.56 0.65 0.65 0.58 0.66 0.67 0.62 0.59 0.57 0.55 0.51 0.53 0.63 0.71 0.76 0.73 0.69 0.58 0.50 0.45 0.39 0.34 0.30 0.26 0.20 0.16 0.17 0.18
0.04 0.05 0.06 0.07 0.09 0.11 0.13 0.14 0.17 0.21 0.24 0.27 0.29 0.39 0.60 0.72 0.67 0.62 0.60 0.59 0.56 0.51 0.48 0.49 0.43 0.42 0.43 0.43 0.52 0.59 0.66 0.67 0.67 0.57 0.48 0.41 0.33 0.30 0.28 0.25 0.19 0.17 0.17 0.15
0.03 0.03 0.04 0.07 0.13 0.20 0.25 0.26 0.23 0.23 0.29 0.31 0.30 0.38 0.55 0.70 0.78 0.71 0.58 0.51 0.47 0.43 0.42 0.39 0.35 0.38 0.40 0.42 0.49 0.58 0.63 0.63 0.64 0.58 0.48 0.40 0.33 0.30 0.28 0.25 0.22 0.19 0.17 0.14
0.04 0.06 0.08 0.12 0.20 0.30 0.36 0.38 0.39 0.41 0.48 0.53 0.51 0.55 0.63 0.65 0.68 0.67 0.58 0.48 0.41 0.41 0.40 0.38 0.34 0.33 0.36 0.43 0.47 0.55 0.62 0.62 0.58 0.52 0.42 0.36 0.30 0.28 0.28 0.25 0.22 0.20 0.16 0.13
0.07 0.10 0.15 0.19 0.26 0.35 0.42 0.49 0.56 0.61 0.70 0.79 0.85 0.79 0.78 0.77 0.72 0.63 0.52 0.43 0.37 0.36 0.36 0.35 0.32 0.29 0.33 0.39 0.46 0.53 0.53 0.53 0.49 0.44 0.42 0.37 0.33 0.32 0.31 0.26 0.22 0.18 0.14 0.13